Location: *
(45.5667°S, 177.5167°W)
Time: 17:29:38
(UTC+00:00)

Lacrosse 5 - Pass Details

Date: 29 May 2022
Orbit: 714 x 724 km, 57.0° (Epoch: 09 March)

Event Time Altitude Azimuth Distance (km) Brightness Sun altitude
Rises 05:58:24 0° 232° (SW) 3,155 5.7 -17.1°
Reaches altitude 10° 06:01:00 10° 222° (SW) 2,233 4.8 -17.5°
Maximum altitude 06:05:42 35° 156° (SSE) 1,182 2.7 -18.4°
Enters shadow 06:06:47 31° 131° (SE) 1,259 2.6 -18.5°
